Regional Weather Roundup
Issued by NWS

Home | Current Version | Previous Version | Graphics & Text | Print | Product List | Glossary Off
Versions: 1 2 3 4 5 6 7 8 9 10 11 12 13 14 15 16 17 18 19 20 21 22 23 24 25 26 27 28 29 30 31 32 33 34 35 36 37 38 39 40 41 42 43 44 45 46 47 48 49 50

707
ASUS43 KFSD 280010
RWRSD

WEATHER ROUNDUP FOR SOUTH DAKOTA
NATIONAL WEATHER SERVICE SIOUX FALLS SD
700 PM CDT SAT AUG 27 2016

NOTE: "FAIR" INDICATES FEW OR NO CLOUDS BELOW 12,000 FEET WITH NO
SIGNIFICANT WEATHER AND/OR OBSTRUCTIONS TO VISIBILITY.


SDZ001>005-009-010-012>017-280100-
NORTHWEST AND NORTH CENTRAL SOUTH DAKOTA

CITY           SKY/WX    TMP DP  RH WIND       PRES   REMARKS
BUFFALO          N/A     79  47  32 SE15      29.81F
FAITH            N/A     80  52  37 S14       29.89S
MOBRIDGE       SUNNY     80  55  42 SE10      29.88R
$$

SDZ012>016-024>037-041>051-057-063-072>074-280100-
SOUTHWEST AND SOUTH CENTRAL SOUTH DAKOTA

CITY           SKY/WX    TMP DP  RH WIND       PRES   REMARKS
RAPID CTY ARPT CLOUDY    80  47  31 W7        29.89R
PIERRE         SUNNY     81  57  43 E7        29.87S
CUSTER         CLOUDY    72  41  32 CALM      30.05R
ELLSWORTH AFB  CLOUDY    81  49  32 E5        29.89R
PHILIP         SUNNY     82  58  43 SE7       29.88S
PINE RIDGE     SUNNY     82  52  35 SE13      29.92S
WINNER         FAIR      87  61  41 S8        29.90S
$$

SDZ004>011-016>023-039-040-280100-
NORTHEAST SOUTH DAKOTA

CITY           SKY/WX    TMP DP  RH WIND       PRES   REMARKS
ABERDEEN       SUNNY     78  62  57 SE8       29.91S
WATERTOWN      SUNNY     74  63  68 S9        29.96S
BROOKINGS      SUNNY     74  63  68 S8        29.98R
SISSETON         N/A     73  62  68 SE10      29.93R
$$

SDZ017-020-022-023-036>040-048>070-280100-
SOUTHEAST SOUTH DAKOTA

CITY           SKY/WX    TMP DP  RH WIND       PRES   REMARKS
SIOUX FALLS    MOSUNNY   76  65  68 S7        29.98S
HURON          SUNNY     80  60  50 S8        29.92R
CHAMBERLAIN    SUNNY     84  62  46 SE5       29.90S
MITCHELL       PTSUNNY   79  62  56 SE8       29.94R
YANKTON        SUNNY     81  63  54 SE9       29.95R
$$

ABBREVIATIONS USED IN REMARKS
   TC - TEMPERATURE IN CELSIUS
  WCI - WIND CHILL INDEX
   HX - HEAT INDEX
  VSB - VISIBILITY





USA.gov is the U.S. government's official web portal to all federal, state and local government web resources and services.